�������l�o���
Date,Time,MP-1(��Sv/h),MP-2(��Sv/h),MP-3(��Sv/h),MP-4(��Sv/h),MP-5(��Sv/h),MP-6(��Sv/h),MP-7(��Sv/h),����,����(m/s),���J
2016/12/28,00:00,0.388,0.239,0.403,0.374,0.340,0.194,0.165,�k,6.0,��
2016/12/28,00:10,0.389,0.239,0.402,0.373,0.341,0.194,0.165,�k,4.2,��
2016/12/28,00:20,0.389,0.238,0.402,0.371,0.341,0.193,0.166,�k,5.2,��
2016/12/28,00:30,0.386,0.238,0.401,0.374,0.342,0.193,0.166,�k,5.8,��
2016/12/28,00:40,0.389,0.239,0.401,0.373,0.342,0.194,0.165,�k,5.4,��
2016/12/28,00:50,0.389,0.239,0.402,0.371,0.342,0.193,0.165,�k,4.8,��
2016/12/28,01:00,0.387,0.238,0.403,0.373,0.341,0.195,0.165,�k,5.7,��
2016/12/28,01:10,0.388,0.238,0.402,0.374,0.340,0.192,0.166,�k,5.4,��
2016/12/28,01:20,0.388,0.239,0.402,0.371,0.341,0.194,0.165,�k,4.8,��
2016/12/28,01:30,0.388,0.239,0.402,0.373,0.342,0.193,0.165,�k�k��,4.5,��
2016/12/28,01:40,0.389,0.238,0.403,0.372,0.341,0.194,0.165,�k�k��,5.0,��
2016/12/28,01:50,0.390,0.238,0.402,0.372,0.341,0.194,0.166,�k,5.6,��
2016/12/28,02:00,0.389,0.239,0.402,0.372,0.341,0.193,0.165,�k,4.8,��
2016/12/28,02:10,0.389,0.239,0.402,0.373,0.341,0.194,0.166,�k�k��,2.6,��
2016/12/28,02:20,0.387,0.237,0.403,0.372,0.340,0.194,0.165,�k,3.5,��
2016/12/28,02:30,0.389,0.239,0.401,0.372,0.344,0.194,0.166,�k,4.8,��
2016/12/28,02:40,0.392,0.239,0.402,0.372,0.341,0.193,0.165,�k,3.7,��
2016/12/28,02:50,0.388,0.239,0.403,0.373,0.341,0.193,0.164,�k,4.1,��
2016/12/28,03:00,0.388,0.239,0.403,0.372,0.338,0.193,0.165,�k,2.2,��
2016/12/28,03:10,0.390,0.240,0.400,0.373,0.341,0.195,0.165,�k��,2.5,��
2016/12/28,03:20,0.388,0.238,0.403,0.372,0.340,0.195,0.165,�k��,3.6,��
2016/12/28,03:30,0.388,0.238,0.404,0.374,0.341,0.193,0.165,�k,4.0,��
2016/12/28,03:40,0.390,0.239,0.401,0.373,0.340,0.194,0.165,�k�k��,4.6,��
2016/12/28,03:50,0.390,0.240,0.402,0.371,0.341,0.195,0.166,�k�k��,5.9,��
2016/12/28,04:00,0.389,0.239,0.403,0.373,0.341,0.193,0.165,�k��,5.8,��
2016/12/28,04:10,0.388,0.239,0.403,0.374,0.341,0.193,0.166,���k��,8.6,��
2016/12/28,04:20,0.389,0.239,0.403,0.371,0.340,0.194,0.164,�k��,5.5,��
2016/12/28,04:30,0.390,0.239,0.402,0.373,0.339,0.194,0.165,�k��,6.7,��
2016/12/28,04:40,0.389,0.239,0.402,0.374,0.342,0.194,0.165,�k��,4.8,��
2016/12/28,04:50,0.389,0.239,0.405,0.373,0.341,0.194,0.166,�k,7.0,��
2016/12/28,05:00,0.388,0.239,0.402,0.373,0.339,0.193,0.165,�k,8.8,��
2016/12/28,05:10,0.390,0.239,0.401,0.372,0.340,0.192,0.166,�k�k��,10.3,��
2016/12/28,05:20,0.392,0.241,0.405,0.374,0.342,0.195,0.165,�k�k��,12.0,�L
2016/12/28,05:30,0.395,0.247,0.407,0.377,0.347,0.200,0.172,�k�k��,12.3,�L
2016/12/28,05:40,0.396,0.248,0.407,0.378,0.346,0.200,0.171,�k�k��,9.6,��
2016/12/28,05:50,0.396,0.247,0.408,0.377,0.345,0.200,0.171,�k,10.4,��
2016/12/28,06:00,0.397,0.246,0.406,0.378,0.346,0.198,0.171,�k,11.6,��
2016/12/28,06:10,0.396,0.245,0.407,0.377,0.345,0.199,0.171,�k�k��,10.0,��
2016/12/28,06:20,0.395,0.245,0.406,0.374,0.344,0.198,0.170,�k�k��,10.4,��
2016/12/28,06:30,0.394,0.244,0.406,0.377,0.344,0.197,0.168,�k�k��,9.1,��
2016/12/28,06:40,0.393,0.242,0.404,0.375,0.343,0.196,0.168,�k�k��,8.6,��
2016/12/28,06:50,0.391,0.241,0.404,0.375,0.343,0.197,0.168,�k,9.4,��
2016/12/28,07:00,0.392,0.242,0.404,0.373,0.342,0.196,0.168,�k�k��,8.7,��
2016/12/28,07:10,0.391,0.242,0.405,0.373,0.343,0.195,0.167,�k�k��,7.8,��
2016/12/28,07:20,0.390,0.241,0.404,0.374,0.341,0.196,0.166,�k�k��,8.1,��
2016/12/28,07:30,0.390,0.239,0.404,0.374,0.341,0.195,0.166,�k,7.8,��
2016/12/28,07:40,0.390,0.239,0.404,0.371,0.341,0.195,0.166,�k,7.5,��
2016/12/28,07:50,0.389,0.240,0.403,0.372,0.342,0.195,0.165,�k,6.1,��
2016/12/28,08:00,0.390,0.239,0.403,0.372,0.341,0.194,0.166,�k,6.1,��
2016/12/28,08:10,0.391,0.239,0.402,0.372,0.342,0.194,0.166,�k�k��,6.8,�L
2016/12/28,08:20,0.389,0.241,0.405,0.372,0.344,0.196,0.167,�k�k��,4.5,�L
2016/12/28,08:30,0.391,0.242,0.408,0.378,0.347,0.200,0.170,�k�k��,5.9,�L
2016/12/28,08:40,0.392,0.243,0.408,0.378,0.347,0.200,0.171,�k,5.2,��
2016/12/28,08:50,0.392,0.242,0.407,0.375,0.347,0.199,0.170,�k�k��,5.3,��
2016/12/28,09:00,0.390,0.242,0.408,0.375,0.344,0.199,0.170,�k,8.6,�L
2016/12/28,09:10,0.390,0.241,0.405,0.375,0.344,0.197,0.169,�k,7.5,�L
2016/12/28,09:20,0.393,0.241,0.404,0.375,0.344,0.197,0.168,�k,8.4,�L
2016/12/28,09:30,0.393,0.241,0.405,0.376,0.343,0.198,0.170,�k,8.2,�L
2016/12/28,09:40,0.392,0.242,0.406,0.375,0.344,0.198,0.170,�k,7.9,��
2016/12/28,09:50,0.392,0.241,0.405,0.376,0.343,0.197,0.168,�k,6.4,��
2016/12/28,10:00,0.391,0.240,0.403,0.374,0.343,0.196,0.168,�k�k��,5.4,��
2016/12/28,10:10,0.391,0.241,0.401,0.375,0.343,0.196,0.168,�k�k��,4.6,��
2016/12/28,10:20,0.391,0.240,0.403,0.373,0.342,0.195,0.168,�k,6.9,��
2016/12/28,10:30,0.392,0.239,0.402,0.373,0.341,0.195,0.166,�k,8.2,�L
2016/12/28,10:40,0.390,0.240,0.402,0.372,0.341,0.195,0.167,�k,8.2,��
2016/12/28,10:50,0.391,0.240,0.402,0.372,0.344,0.195,0.167,�k,6.7,��
2016/12/28,11:00,0.388,0.241,0.402,0.373,0.343,0.194,0.167,�k,8.0,��
2016/12/28,11:10,0.391,0.241,0.400,0.374,0.342,0.194,0.165,�k,8.7,��
2016/12/28,11:20,0.393,0.241,0.402,0.372,0.344,0.195,0.167,�k,7.3,�L
2016/12/28,11:30,0.393,0.242,0.403,0.374,0.342,0.195,0.167,�k,5.1,�L
2016/12/28,11:40,0.392,0.243,0.402,0.372,0.343,0.194,0.166,�k,4.7,��
2016/12/28,11:50,0.392,0.241,0.400,0.372,0.342,0.194,0.166,�k,5.5,��
2016/12/28,12:00,0.392,0.240,0.402,0.374,0.344,0.196,0.166,�k,4.7,��
2016/12/28,12:10,0.391,0.240,0.403,0.372,0.342,0.193,0.167,�k�k��,3.3,��
2016/12/28,12:20,0.392,0.240,0.400,0.371,0.341,0.194,0.167,�k,6.2,��
2016/12/28,12:30,0.388,0.241,0.401,0.373,0.343,0.195,0.166,�k�k��,7.9,��
2016/12/28,12:40,0.389,0.239,0.398,0.371,0.342,0.194,0.165,�k,7.3,��
2016/12/28,12:50,0.388,0.239,0.399,0.373,0.342,0.194,0.165,�k,7.3,��
2016/12/28,13:00,0.391,0.240,0.400,0.371,0.343,0.195,0.166,�k�k��,7.7,��
2016/12/28,13:10,0.388,0.241,0.399,0.373,0.341,0.194,0.166,�k�k��,5.2,��
2016/12/28,13:20,0.389,0.240,0.401,0.373,0.343,0.193,0.166,�k�k��,7.5,�L
2016/12/28,13:30,0.390,0.240,0.403,0.373,0.343,0.194,0.166,�k,6.1,��
2016/12/28,13:40,0.389,0.240,0.399,0.374,0.341,0.196,0.166,�k,4.4,��
2016/12/28,13:50,0.392,0.240,0.401,0.373,0.341,0.195,0.165,�k,4.5,��
2016/12/28,14:00,0.392,0.240,0.403,0.374,0.342,0.194,0.165,�k,6.2,��
2016/12/28,14:10,0.389,0.239,0.400,0.374,0.341,0.194,0.166,�k�k��,8.2,��
2016/12/28,14:20,0.389,0.240,0.401,0.372,0.342,0.194,0.166,�k,5.5,��
2016/12/28,14:30,0.392,0.240,0.401,0.373,0.342,0.194,0.165,�k,5.3,��
2016/12/28,14:40,0.389,0.240,0.401,0.374,0.342,0.194,0.166,�k�k��,6.8,��
2016/12/28,14:50,0.389,0.240,0.400,0.374,0.341,0.193,0.165,�k,6.1,��
2016/12/28,15:00,0.390,0.240,0.402,0.374,0.342,0.193,0.166,�k,5.6,��
2016/12/28,15:10,0.390,0.239,0.401,0.374,0.341,0.194,0.166,�k�k��,1.9,��
2016/12/28,15:20,0.389,0.241,0.401,0.373,0.341,0.193,0.166,�k,0.9,��
2016/12/28,15:30,0.390,0.239,0.401,0.371,0.340,0.193,0.165,�k,3.1,��
2016/12/28,15:40,0.391,0.239,0.404,0.375,0.341,0.194,0.166,�k,2.8,��
2016/12/28,15:50,0.392,0.240,0.401,0.372,0.341,0.194,0.166,�k,1.7,��
2016/12/28,16:00,0.390,0.240,0.400,0.374,0.341,0.194,0.165,�k�k��,0.8,��
2016/12/28,16:10,0.389,0.239,0.402,0.373,0.340,0.194,0.165,�k�k��,0.6,��
2016/12/28,16:20,0.389,0.239,0.402,0.372,0.340,0.193,0.164,�k,1.7,��
2016/12/28,16:30,0.389,0.240,0.399,0.372,0.341,0.193,0.165,�k,3.9,��
2016/12/28,16:40,0.388,0.239,0.401,0.372,0.341,0.193,0.164,�k,4.2,��
2016/12/28,16:50,0.389,0.239,0.401,0.373,0.341,0.193,0.164,�k,4.0,��
2016/12/28,17:00,0.390,0.238,0.401,0.372,0.341,0.194,0.166,�k,3.8,��
2016/12/28,17:10,0.389,0.239,0.399,0.371,0.340,0.194,0.165,�k�k��,3.4,��
2016/12/28,17:20,0.390,0.239,0.400,0.371,0.339,0.193,0.165,�k,3.1,��
2016/12/28,17:30,0.390,0.240,0.401,0.372,0.339,0.193,0.163,�k,3.9,��
2016/12/28,17:40,0.388,0.239,0.400,0.372,0.340,0.192,0.165,�k,4.1,��
2016/12/28,17:50,0.388,0.240,0.400,0.370,0.341,0.193,0.164,�k,5.0,��
2016/12/28,18:00,0.389,0.238,0.400,0.372,0.341,0.192,0.165,�k�k��,4.4,��
2016/12/28,18:10,0.390,0.240,0.401,0.373,0.339,0.193,0.165,�k�k��,3.4,��
2016/12/28,18:20,0.389,0.240,0.401,0.372,0.341,0.193,0.165,�k�k��,2.1,��
2016/12/28,18:30,0.390,0.239,0.399,0.371,0.342,0.194,0.164,�k��,2.1,��
2016/12/28,18:40,0.388,0.238,0.401,0.372,0.340,0.193,0.163,�k��,2.3,��
2016/12/28,18:50,0.389,0.240,0.400,0.372,0.339,0.193,0.166,�k��,2.9,��
2016/12/28,19:00,0.390,0.238,0.401,0.372,0.339,0.193,0.164,���k��,2.7,��
2016/12/28,19:10,0.388,0.238,0.400,0.373,0.341,0.192,0.164,��,1.3,��
2016/12/28,19:20,0.388,0.242,0.402,0.371,0.340,0.193,0.165,��,2.0,��
2016/12/28,19:30,0.388,0.241,0.401,0.371,0.340,0.193,0.164,��,1.1,��
2016/12/28,19:40,0.387,0.238,0.402,0.372,0.340,0.193,0.165,���쐼,1.1,��
2016/12/28,19:50,0.389,0.240,0.400,0.372,0.340,0.193,0.163,���쐼,1.9,��
2016/12/28,20:00,0.389,0.237,0.401,0.371,0.341,0.192,0.165,���쐼,2.3,��
2016/12/28,20:10,0.388,0.238,0.399,0.370,0.339,0.193,0.164,���쐼,2.9,��
2016/12/28,20:20,0.387,0.239,0.401,0.372,0.338,0.193,0.165,�쐼,1.8,��
2016/12/28,20:30,0.390,0.240,0.402,0.372,0.340,0.193,0.165,�쐼,1.9,��
2016/12/28,20:40,0.388,0.238,0.400,0.373,0.340,0.193,0.165,��,1.7,��
2016/12/28,20:50,0.388,0.238,0.399,0.371,0.340,0.192,0.165,��,4.3,��
2016/12/28,21:00,0.389,0.239,0.399,0.372,0.338,0.193,0.166,���k��,5.1,��
2016/12/28,21:10,0.389,0.237,0.401,0.371,0.339,0.190,0.164,���k��,5.3,��
2016/12/28,21:20,0.389,0.240,0.402,0.370,0.339,0.192,0.165,���k��,4.6,��
2016/12/28,21:30,0.389,0.239,0.401,0.372,0.339,0.192,0.164,�k�k��,3.4,��
2016/12/28,21:40,0.388,0.239,0.401,0.371,0.340,0.194,0.165,�k�k��,2.8,��
2016/12/28,21:50,0.388,0.239,0.401,0.372,0.338,0.193,0.163,�k�k��,3.0,��
2016/12/28,22:00,0.389,0.240,0.402,0.371,0.340,0.193,0.164,�k�k��,1.9,��
2016/12/28,22:10,0.389,0.238,0.400,0.371,0.339,0.193,0.164,�k�k��,1.8,��
2016/12/28,22:20,0.387,0.239,0.401,0.371,0.340,0.193,0.165,�k�k��,2.2,��
2016/12/28,22:30,0.389,0.240,0.399,0.371,0.340,0.193,0.165,�k��,3.4,��
2016/12/28,22:40,0.387,0.237,0.402,0.371,0.340,0.192,0.164,�k�k��,2.9,��
2016/12/28,22:50,0.390,0.239,0.402,0.371,0.340,0.192,0.164,�k�k��,1.9,��
2016/12/28,23:00,0.388,0.237,0.400,0.372,0.340,0.192,0.164,��,0.8,��
2016/12/28,23:10,0.388,0.239,0.401,0.371,0.340,0.192,0.164,���k��,1.1,��
2016/12/28,23:20,0.389,0.237,0.400,0.371,0.339,0.192,0.164,���쐼,0.5,��
2016/12/28,23:30,0.389,0.238,0.401,0.371,0.339,0.192,0.166,���쐼,0.9,��
2016/12/28,23:40,0.390,0.239,0.401,0.371,0.342,0.192,0.164,���쐼,1.0,��
2016/12/28,23:50,0.389,0.240,0.401,0.370,0.340,0.193,0.165,��쐼,1.4,��
